map of LBD home
LBD - Airport
Location
City:  Khujand, Sughd, Tajikistan
Near (Alt.):Khudzhand
Name:Khujand Airport
ICAO:UTDL
IATA:LBD

Details
Type:Airport (Aerodrome, Airfield)
Use:Public/Civil, International (customs port of entry)
Latitude:4013'N (40.215)
Longitude:6942'E (69.697)
Elevation:1450 ft (442 m)
Variation:5.07E (WMM2015v2 magnetic declination)
0.06 annual change
Runways:1
Longest:10499 × 164 ft (3200 × 50 m), paved

Time
Time Zone:UTC+5
Local Time:

Weather
METAR:UTDL 041400Z 00000MPS 8000 FEW066CB OVC086 06/M01 Q1020 R26/CLRD70 NOSIG RMK QFE727/0970

Related Locations
Nearby:
Farthest:IPC: 11529 mi / 18554 km
Easter Island (Isla de Pascua, Rapa Nui) [Mataveri Intl], VS, CL

Find:

   beyond  
but within

Other Information
Maps:
NOTAMs:
Links:
Sources:

  
  • flag of Tajikistan
  

Sectional Chart

Flight Planning
at skyvector.com

Satellite Image

Google Maps Satellite view

Yandex Maps Satellite view


 

Copyright © 2004-2019 Karl L. Swartz. All rights reserved.
The Great Circle Mapper name and logo are trademarks of the Great Circle Mapper.
All other trademarks mentioned herein belong to their respective owners.
Please see credits for attibutions and further copyright information.

  Follow gcmap on Facebook Follow gcmap on Twitter GCmap on LinkedIn

hCard Microformat

Geo Microformat